User: anonymous   Login
Location: Caltech
(34.1382°N, 118.1253°W)
Time: 10:20:03
(UTC-07:00)
Language:

Iridium 91 - Orbit

View from above orbital plane
View from above orbital plane
View from above satellite
View from above satellite

Ground track
Ground track

The orbit data is extracted from the following two-line orbital elements,

1 27372U 02005A   15085.52076253  .00000210  00000-0  67764-4 0  9994
2 27372 086.3932 267.8091 0002330 077.0755 304.2453 14.34215820695007
Epoch (UTC): 26 March 2015 12:29:53
Eccentricity: 0.0002330
inclination: 86.3932°
perigee height: 776 km
apogee height: 779 km
right ascension of ascending node: 267.8091°
argument of perigee: 77.0755°
revolutions per day: 14.34215820
mean anomaly at epoch: 304.2453°
orbit number at epoch: 69500

The dashed part of the orbit path shows where the satellite is in the earth's shadow,  

DLR